Miscellaneous Local Product
Issued by NWS Hastings, NE

Home | Current Version | Previous Version | Graphics & Text | Print | Product List | Glossary On
Versions: 1 2 3 4 5 6 7 8 9 10 11 12 13 14 15 16 17 18 19 20 21 22 23 24 25 26 27 28 29 30 31 32 33 34 35 36 37 38 39 40 41 42 43 44 45 46 47 48 49 50
000
AXUS43 KGID 252002
MISGRI

GID CWA HOURLY WEATHER ROUNDUP
NATIONAL WEATHER SERVICE HASTINGS NE
200 PM CST WED FEB 25 2015

NOTE: "FAIR" INDICATES FEW OR NO CLOUDS BELOW 12,000 FEET WITH NO
SIGNIFICANT WEATHER AND/OR OBSTRUCTIONS TO VISIBILITY.

...SOUTH CENTRAL NEBRASKA...

CITY           SKY/WX    TMP DP  RH WIND       PRES   REMARKS
GRAND ISLAND   CLOUDY    31  22  69 N31       29.89R WCI  16
HASTINGS       CLOUDY    36  25  64 N25G36    29.84R WCI  24
KEARNEY        CLOUDY    39  25  56 N32       29.86R WCI  27
ORD            CLOUDY    25  18  74 N22G31    29.93R WCI  10
YORK           MIX PCPN  30  27  86 N25G37    29.84R WCI  16
AURORA         FLURRIES  32  28  85 N32G38    29.84R WCI  17
LEXINGTON      CLOUDY    41  30  66 N25G36    29.87R
HOLDREGE       CLOUDY    41  28  58 N28G36    29.83R
HEBRON         LGT RAIN  35  32  87 N21G29    29.82R WCI  24

...NEBRASKA PANHANDLE...

CITY           SKY/WX    TMP DP  RH WIND       PRES   REMARKS
CHADRON        CLOUDY    29  22  75 N17       30.01S WCI  17
ALLIANCE       CLOUDY    30  24  78 N22G33    29.94R WCI  17
SCOTTSBLUFF    CLOUDY    38  27  64 NE20      29.95R WCI  28
SIDNEY         SNOW      33  30  88 NE16      29.91R VSB 1/4 WCI  23

...WESTERN AND NORTH CENTRAL NEBRASKA...

CITY           SKY/WX    TMP DP  RH WIND       PRES   REMARKS
VALENTINE      LGT SNOW  18  12  77 N17G24    30.04R WCI   3
AINSWORTH      LGT SNOW  18  13  80 N25G31    30.01R WCI   0
ONEILL         FLURRIES  19  15  86 N18G26    29.98R WCI   3
BROKEN BOW     CLOUDY    29  22  75 N22G33    29.91R WCI  15
IMPERIAL         N/A     41  28  60 N23       29.89R
NORTH PLATTE   CLOUDY    37  27  67 N30G37    29.90R WCI  24
MCCOOK         CLOUDY    45  29  53 N29G37    29.85R

...EASTERN NEBRASKA...

CITY           SKY/WX    TMP DP  RH WIND       PRES   REMARKS
NORFOLK        CLOUDY    22  17  81 N24G30    29.92R WCI   5
SO SIOUX CITY  MIX PCPN  22  15  75 N20G29    29.94R WCI   7
TEKAMAH        MIX PCPN  23  18  81 N20       29.88R WCI   8
COLUMBUS       CLOUDY    25  14  63 N23G29    29.89R WCI  10
ALBION         CLOUDY    24  18  80 N23       29.90R WCI   8
OMAHA EPPLEY   LGT SNOW  27  24  89 N24G31    29.80R VSB 3/4 WCI  12
OFFUTT AFB     LGT SNOW  36  32  87 N14G24    29.75R VSB 3/4 WCI  27
MILLARD        LGT SNOW  30  27  89 NW16G22   29.79R VSB 3/4 WCI  19
LINCOLN        LGT SNOW  31  27  85 N23       29.83R FOG     WCI  18
NEBRASKA CITY  CLOUDY    46  28  49 NW24G30   29.72R
BEATRICE       LGT SNOW  36  34  91 N24G30    29.78R WCI  24
FALLS CITY     CLOUDY    54  25  32 SW14      29.69F

...NORTHERN KANSAS...

CITY           SKY/WX    TMP DP  RH WIND       PRES   REMARKS
GOODLAND       CLOUDY    41  33  73 N20G29    29.86S
HILL CITY      CLOUDY    52  32  46 N25G32    29.81R
NORTON         CLOUDY    46  28  49 N26G35    29.83R
PHILLIPSBURG   PTSUNNY   52  32  46 N31G38    29.82R
SMITH CENTER   PTSUNNY   46  30  53 N30G37    29.80R
BELOIT         CLOUDY    48  32  53 N26       29.76R
HAYS           MOSUNNY   55  30  38 N26G35    29.76R
RUSSELL        PTSUNNY   53  31  42 NE15G23   29.74S
CONCORDIA      LGT RAIN  44  38  79 N15G22    29.77R
SALINA         PTSUNNY   58  26  29 W16       29.72F
TOPEKA         MOSUNNY   56  26  31 SW16      29.72F



USA.gov is the U.S. government's official web portal to all federal, state and local government web resources and services.